User: anonymous   Login
Location: Oshawa
(43.9000°N, 78.8670°W)
Time: 16:45:42
(UTC-04:00)
Language:

CZ-4C R/B - Orbit

View from above orbital plane
View from above orbital plane
View from above satellite
View from above satellite

Ground track
Ground track

The orbit data is extracted from the following two-line orbital elements,

1 32290U 07055B   16270.40842423  .00003417  00000-0  10149-3 0  9999
2 32290  97.5267   5.7914 0069403 353.2153   6.8142 15.33142474491384
Epoch (UTC): 26 September 2016 09:48:07
Eccentricity: 0.0069403
inclination: 97.5267°
perigee height: 419 km
apogee height: 514 km
right ascension of ascending node: 5.7914°
argument of perigee: 353.2153°
revolutions per day: 15.33142474
mean anomaly at epoch: 6.8142°
orbit number at epoch: 49138

The dashed part of the orbit path shows where the satellite is in the earth's shadow,  

DLR